When you browse on this site, cookies collect data to enhance your experience and personalize the content and advertising you see.
Visit our Privacy Policy to learn more. By continuing to use the site, you agree to this use of cookies and data.
  • En España
  • Lista de países
  • Para 7 días
  • Temperatura del agua
  • Mapa Satelital
  • El tiempo en el mapa
  • Informadores
  • user-avatar
    Iniciar sesión

    Tiempo cada hora Melbourne

    Hoy, 22 Febrero, Viernes

    Tiempo Temperatura Precipitaciones Viento Presión Humedad
    00:00 +16°C° 0 mm 2 mps 765 mmHg 77%
    01:00 +16°C° 0 mm 2 mps 765 mmHg 78%
    02:00 +15°C° 0 mm 2 mps 765 mmHg 80%
    03:00 +15°C° 0 mm 2 mps 765 mmHg 81%
    04:00 +15°C° 0 mm 2 mps 765 mmHg 85%
    05:00 +15°C° 0 mm 2 mps 765 mmHg 84%
    06:00 +16°C° 0 mm 2 mps 765 mmHg 82%
    07:00 +16°C° 0 mm 2 mps 766 mmHg 81%
    08:00 +17°C° 0 mm 2 mps 766 mmHg 73%
    09:00 +19°C° 0 mm 3 mps 766 mmHg 65%
    10:00 +21°C° 0 mm 3 mps 766 mmHg 57%
    11:00 +22°C° 0 mm 3 mps 766 mmHg 53%
    12:00 +23°C° 0 mm 4 mps 765 mmHg 48%
    13:00 +26°C° 0 mm 4 mps 765 mmHg 44%
    14:00 +25°C° 0 mm 5 mps 765 mmHg 46%
    15:00 +25°C° 0 mm 5 mps 765 mmHg 47%
    16:00 +25°C° 0 mm 5 mps 764 mmHg 49%
    17:00 +22°C° 0 mm 5 mps 765 mmHg 54%
    18:00 +21°C° 0 mm 4 mps 765 mmHg 60%
    19:00 +20°C° 0 mm 4 mps 765 mmHg 65%
    20:00 +19°C° 0 mm 4 mps 766 mmHg 69%
    21:00 +18°C° 0 mm 3 mps 766 mmHg 74%
    22:00 +17°C° 0 mm 3 mps 766 mmHg 78%
    23:00 +17°C° 0 mm 3 mps 766 mmHg 79%

    Mañana, 23 Febrero, Sábado

    Tiempo Temperatura Precipitaciones Viento Presión Humedad
    00:00 +17°C° 0 mm 3 mps 766 mmHg 81%
    01:00 +16°C° 0 mm 3 mps 766 mmHg 83%
    02:00 +16°C° 0 mm 3 mps 766 mmHg 84%
    03:00 +16°C° 0 mm 2 mps 766 mmHg 85%
    04:00 +16°C° 0 mm 2 mps 766 mmHg 86%
    05:00 +16°C° 0 mm 2 mps 766 mmHg 85%
    06:00 +16°C° 0 mm 2 mps 766 mmHg 85%
    07:00 +16°C° 0 mm 2 mps 767 mmHg 84%
    08:00 +18°C° 0 mm 2 mps 767 mmHg 75%
    09:00 +20°C° 0 mm 2 mps 767 mmHg 66%
    10:00 +23°C° 0 mm 2 mps 767 mmHg 57%
    11:00 +25°C° 0 mm 3 mps 767 mmHg 50%
    12:00 +26°C° 0 mm 3 mps 766 mmHg 42%
    13:00 +28°C° 0 mm 3 mps 766 mmHg 35%
    14:00 +29°C° 0 mm 4 mps 766 mmHg 35%
    15:00 +29°C° 0 mm 4 mps 766 mmHg 35%
    16:00 +29°C° 0 mm 5 mps 765 mmHg 35%
    17:00 +28°C° 0 mm 5 mps 765 mmHg 39%
    18:00 +27°C° 0 mm 4 mps 766 mmHg 42%
    19:00 +26°C° 0 mm 4 mps 766 mmHg 46%
    20:00 +25°C° 0 mm 4 mps 766 mmHg 52%
    21:00 +22°C° 0 mm 4 mps 767 mmHg 59%
    22:00 +20°C° 0 mm 4 mps 767 mmHg 65%
    23:00 +20°C° 0 mm 4 mps 767 mmHg 69%

    Pasado mañana, 24 Febrero, Domingo

    Tiempo Temperatura Precipitaciones Viento Presión Humedad
    00:00 +19°C° 0 mm 3 mps 767 mmHg 72%
    01:00 +18°C° 0 mm 3 mps 767 mmHg 75%
    02:00 +18°C° 0 mm 2 mps 767 mmHg 77%
    03:00 +17°C° 0 mm 2 mps 767 mmHg 78%
    04:00 +17°C° 0 mm 2 mps 767 mmHg 80%
    05:00 +17°C° 0 mm 2 mps 767 mmHg 77%
    06:00 +17°C° 0 mm 2 mps 768 mmHg 75%
    07:00 +18°C° 0 mm 2 mps 768 mmHg 73%
    08:00 +21°C° 0 mm 2 mps 768 mmHg 63%
    09:00 +24°C° 0 mm 2 mps 768 mmHg 53%
    10:00 +27°C° 0 mm 3 mps 768 mmHg 43%
    11:00 +29°C° 0 mm 2 mps 767 mmHg 38%
    12:00 +31°C° 0 mm 2 mps 767 mmHg 33%
    13:00 +34°C° 0 mm 2 mps 767 mmHg 28%
    14:00 +35°C° 0 mm 2 mps 766 mmHg 27%
    15:00 +36°C° 0 mm 2 mps 766 mmHg 25%
    16:00 +36°C° 0 mm 2 mps 765 mmHg 24%
    17:00 +34°C° 0 mm 2 mps 765 mmHg 27%
    18:00 +33°C° 0 mm 3 mps 765 mmHg 29%
    19:00 +30°C° 0 mm 4 mps 765 mmHg 32%
    20:00 +29°C° 0 mm 3 mps 766 mmHg 36%
    21:00 +27°C° 0 mm 3 mps 766 mmHg 40%
    22:00 +26°C° 0 mm 3 mps 767 mmHg 44%
    23:00 +25°C° 0 mm 2 mps 766 mmHg 45%

    25 Febrero, Lunes

    Tiempo Temperatura Precipitaciones Viento Presión Humedad
    00:00 +25°C° 0 mm 2 mps 766 mmHg 46%
    01:00 +24°C° 0 mm 2 mps 766 mmHg 46%
    02:00 +24°C° 0 mm 3 mps 766 mmHg 45%
    03:00 +23°C° 0 mm 4 mps 766 mmHg 44%
    04:00 +23°C° 0 mm 4 mps 766 mmHg 43%
    05:00 +23°C° 0 mm 5 mps 766 mmHg 43%
    06:00 +23°C° 0 mm 5 mps 767 mmHg 42%
    07:00 +22°C° 0 mm 6 mps 767 mmHg 42%
    08:00 +24°C° 0 mm 6 mps 767 mmHg 39%
    09:00 +27°C° 0 mm 6 mps 768 mmHg 35%
    10:00 +28°C° 0 mm 6 mps 768 mmHg 32%
    11:00 +30°C° 0 mm 5 mps 767 mmHg 29%
    12:00 +33°C° 0 mm 4 mps 767 mmHg 25%
    13:00 +35°C° 0 mm 4 mps 766 mmHg 22%
    14:00 +36°C° 0 mm 3 mps 765 mmHg 21%
    15:00 +37°C° 0 mm 2 mps 765 mmHg 20%
    16:00 +36°C° 0 mm 1 mps 764 mmHg 19%
    17:00 +35°C° 0 mm 1 mps 764 mmHg 22%
    18:00 +33°C° 0 mm 1 mps 764 mmHg 24%
    19:00 +32°C° 0 mm 2 mps 764 mmHg 26%
    20:00 +30°C° 0 mm 2 mps 764 mmHg 28%
    21:00 +29°C° 0 mm 2 mps 765 mmHg 30%
    22:00 +28°C° 0 mm 3 mps 765 mmHg 32%
    23:00 +28°C° 0 mm 3 mps 764 mmHg 33%

    26 Febrero, Martes

    Tiempo Temperatura Precipitaciones Viento Presión Humedad
    00:00 +27°C° 0 mm 2 mps 764 mmHg 34%
    01:00 +27°C° 0 mm 2 mps 764 mmHg 34%
    02:00 +26°C° 0 mm 2 mps 763 mmHg 35%
    03:00 +26°C° 0 mm 2 mps 763 mmHg 35%
    04:00 +25°C° 0 mm 2 mps 763 mmHg 36%
    05:00 +26°C° 0 mm 3 mps 763 mmHg 36%
    06:00 +26°C° 0 mm 3 mps 763 mmHg 36%
    07:00 +26°C° 0 mm 3 mps 764 mmHg 36%
    08:00 +28°C° 0 mm 3 mps 764 mmHg 32%
    09:00 +30°C° 0 mm 3 mps 764 mmHg 28%
    10:00 +34°C° 0 mm 4 mps 764 mmHg 25%
    11:00 +35°C° 0 mm 3 mps 763 mmHg 22%
    12:00 +37°C° 0 mm 3 mps 763 mmHg 19%
    13:00 +38°C° 0 mm 2 mps 762 mmHg 17%
    14:00 +37°C° 0 mm 4 mps 762 mmHg 20%
    15:00 +36°C° 0 mm 5 mps 762 mmHg 23%
    16:00 +35°C° 0 mm 6 mps 761 mmHg 26%
    17:00 +32°C° 0 mm 6 mps 762 mmHg 39%
    18:00 +28°C° 0 mm 5 mps 762 mmHg 51%
    19:00 +23°C° 0 mm 5 mps 763 mmHg 64%
    20:00 +22°C° 0 mm 4 mps 763 mmHg 67%
    21:00 +21°C° 0 mm 3 mps 764 mmHg 71%
    22:00 +20°C° 0 mm 3 mps 764 mmHg 75%
    23:00 +20°C° 0 mm 3 mps 764 mmHg 76%

    27 Febrero, Miércoles

    Tiempo Temperatura Precipitaciones Viento Presión Humedad
    00:00 +19°C° 0 mm 3 mps 764 mmHg 76%
    01:00 +19°C° 0 mm 2 mps 764 mmHg 76%
    02:00 +18°C° 0 mm 2 mps 764 mmHg 77%
    03:00 +18°C° 0 mm 2 mps 764 mmHg 78%
    04:00 +19°C° 0 mm 1 mps 764 mmHg 79%
    05:00 +19°C° 0 mm 1 mps 764 mmHg 79%
    06:00 +19°C° 0 mm 1 mps 764 mmHg 79%
    07:00 +19°C° 0 mm 1 mps 764 mmHg 78%
    08:00 +22°C° 0 mm 1 mps 764 mmHg 67%
    09:00 +25°C° 0 mm 1 mps 764 mmHg 56%
    10:00 +28°C° 0 mm 1 mps 764 mmHg 45%
    11:00 +30°C° 0 mm 1 mps 764 mmHg 39%
    12:00 +33°C° 0 mm 1 mps 763 mmHg 33%
    13:00 +35°C° 0 mm 1 mps 763 mmHg 27%
    14:00 +36°C° 0 mm 2 mps 762 mmHg 27%
    15:00 +37°C° 0 mm 3 mps 762 mmHg 26%
    16:00 +37°C° 0 mm 3 mps 761 mmHg 25%
    17:00 +35°C° 0 mm 3 mps 761 mmHg 31%
    18:00 +34°C° 0 mm 3 mps 761 mmHg 37%
    19:00 +31°C° 0 mm 3 mps 761 mmHg 43%
    20:00 +30°C° 0 mm 3 mps 761 mmHg 45%
    21:00 +29°C° 0 mm 2 mps 762 mmHg 47%
    22:00 +28°C° 0 mm 2 mps 762 mmHg 49%
    23:00 +28°C° 0 mm 2 mps 762 mmHg 46%
    Mostrar más